Regional Weather Roundup
Issued by NWS

Home | Current Version | Previous Version | Graphics & Text | Print | Product List | Glossary On
Versions: 1 2 3 4 5 6 7 8 9 10 11 12 13 14 15 16 17 18 19 20 21 22 23 24 25 26 27 28 29 30 31 32 33 34 35 36 37 38 39 40 41 42 43 44 45 46 47 48 49 50
000
ASUS45 KCYS 060910
RWRWY

WYOMING REGIONAL WEATHER ROUNDUP
NATIONAL WEATHER SERVICE CHEYENNE WY
200 AM MST FRI MAR 06 2015

NOTE:  "FAIR" INDICATES FEW OR NO CLOUDS BELOW 12,000 FEET
WITH NO SIGNIFICANT WEATHER AND/OR OBSTRUCTIONS TO VISIBILITY.

WYZ001-061000-
YELLOWSTONE NATIONAL PARK

CITY           SKY/WX    TMP DP  RH WIND       PRES   REMARKS
LK YELLOWSTONE   N/A      4   0  83 NW3       30.35R
W YELLOWSTONE  NOT AVBL

$$
WYZ002>013-054>058-071-098>099-061000-
NORTHERN WYOMING

CITY           SKY/WX    TMP DP  RH WIND       PRES   REMARKS
JACKSON        FAIR      10   7  85 N12       30.36R WCI  -4
CODY           FAIR      39  10  30 W12G20    30.17S WCI  32
GREYBULL       FAIR      23  16  74 E3        30.24R
WORLAND        FAIR      23  16  74 CALM      30.23R
SHERIDAN       FAIR      25  15  66 S5        30.15R WCI  19
BUFFALO        FAIR      36  12  37 SW6       30.15S WCI  31
GILLETTE       CLOUDY    35  17  47 SW14      30.14R WCI  26
HULETT         CLOUDY    34  19  55 SW12      30.13S WCI  25
NEWCASTLE      FAIR      23  14  68 N8        30.17S WCI  14

$$
WYZ014>020-022>026-101>103-061000-
CENTRAL WYOMING

CITY           SKY/WX    TMP DP  RH WIND       PRES   REMARKS
BIG PINEY      FAIR      19  12  74 N3        30.36S
PINEDALE       FAIR       7   3  85 W5        30.36S WCI  -2
DUBOIS         FAIR      19   9  63 NW22      30.28S WCI   3
LANDER         FAIR      17  10  74 NW10      30.24R WCI   5
RIVERTON       FAIR      15   8  73 CALM      30.25R
CASPER         CLOUDY    30  20  66 SW14      30.22R WCI  19
DOUGLAS        MOCLDY    21  15  78 CALM      30.22R

$$
WYZ021-027>030-104>119-061000-
SOUTHERN WYOMING

CITY           SKY/WX    TMP DP  RH WIND       PRES   REMARKS
EVANSTON       FAIR      21  12  68 SW12      30.40R WCI   9
FORT BRIDGER   FAIR      25  12  58 CALM      30.40R
ROCK SPRINGS   FAIR      26  13  57 S6        30.35R WCI  19
DIXON          FAIR      14  10  84 SE6       30.41S WCI   5
RAWLINS        FAIR      26  14  60 W23G30    30.28R WCI  11
SARATOGA       FAIR      25  12  58 SW10G17   30.34R WCI  15
LARAMIE        CLOUDY    27  12  53 W5        30.25R WCI  22
CHEYENNE       CLOUDY    35  14  42 W12       30.21F WCI  27
TORRINGTON     CLOUDY    28  20  71 NW5       30.21S WCI  23
PINE BLUFFS    CLOUDY    28  18  64 W5        30.23S WCI  23

$$



USA.gov is the U.S. government's official web portal to all federal, state and local government web resources and services.